Location: Bothwell
(41.7170°N, 112.2589°W)
Time: 01:46:46
(UTC+00:00)

Vanguard 3 - All Passes

Search period start: 14 May 2026 00:00
Search period end: 24 May 2026 00:00
Orbit: 507 x 3205 km, 33.4° (Epoch: 13 May)

Date Brightness Start Highest point End Pass type
(mag) Time Alt. Az. Time Alt. Az. Time Alt. Az.
14 May - 01:45:20 10° W 02:01:58 51° SSW 02:12:26 10° SE daylight
14 May - 04:03:33 10° W 04:12:58 22° SW 04:19:40 10° S visible
14 May - 17:47:02 10° SSE 17:56:10 17° SE 18:06:09 10° E daylight
14 May - 19:52:31 10° SSW 20:08:45 42° SSE 20:25:25 10° E daylight
14 May - 22:04:28 10° WSW 22:23:29 62° S 22:39:22 10° E daylight
15 May - 00:19:41 10° W 00:38:24 61° SSW 00:51:12 10° ESE daylight
15 May - 02:36:42 10° W 02:51:11 38° SW 03:00:36 10° SSE daylight
15 May - 18:31:51 10° S 18:45:06 29° SE 19:00:00 10° E daylight
15 May - 20:41:07 10° SW 20:58:46 54° SSE 21:16:00 10° E daylight
15 May - 22:54:40 10° WSW 23:14:00 65° S 23:29:06 10° ESE daylight
16 May - 01:10:41 10° W 01:28:20 53° SSW 01:40:04 10° SE daylight
16 May - 03:28:48 10° W 03:39:50 24° SW 03:47:40 10° S visible
16 May - 17:14:04 10° SSE 17:22:20 16° SE 17:31:40 10° E daylight
16 May - 19:19:07 10° SSW 19:34:29 42° SSE 19:51:37 10° E daylight
16 May - 21:30:33 10° WSW 21:49:09 62° SSE 22:06:11 10° E daylight
16 May - 23:45:16 10° W 00:04:25 62° S 00:18:31 10° ESE daylight
17 May - 02:01:59 10° W 02:17:44 40° SSW 02:28:17 10° SSE daylight
17 May - 04:23:51 10° WSW 04:27:58 12° SW 04:31:35 10° SW visible
17 May - 17:58:46 10° S 18:11:04 28° SE 18:25:47 10° E daylight
17 May - 20:07:36 10° SW 20:24:24 54° SSE 20:42:24 10° E daylight
17 May - 22:20:36 10° WSW 22:39:43 66° S 22:56:05 10° ESE daylight
18 May - 00:36:08 10° W 00:54:30 54° SSW 01:07:31 10° SE daylight
18 May - 02:54:01 10° W 03:06:30 26° SW 03:15:28 10° S visible
18 May - 16:41:25 10° SSE 16:48:37 15° SE 16:56:53 10° E daylight
18 May - 18:45:57 10° SSW 19:00:17 41° SSE 19:17:35 10° E daylight
18 May - 20:56:54 10° WSW 21:14:45 63° SSE 21:32:45 10° E daylight
18 May - 23:11:03 10° W 23:30:15 63° S 23:45:39 10° ESE daylight
19 May - 01:27:21 10° W 01:44:02 42° SSW 01:55:50 10° SSE daylight
19 May - 03:48:27 10° WSW 03:54:45 14° SW 04:00:03 10° SSW visible
19 May - 17:25:55 10° S 17:37:10 27° SE 17:51:20 10° E daylight
19 May - 19:34:19 10° SW 19:50:04 54° SSE 20:08:31 10° E daylight
19 May - 21:46:46 10° WSW 22:05:21 66° S 22:22:49 10° ESE daylight
20 May - 00:01:45 10° W 00:20:27 55° SSW 00:34:45 10° SE daylight
20 May - 02:19:16 10° W 02:32:58 28° SW 02:43:05 10° S daylight
20 May - 16:09:08 10° SSE 16:15:02 14° SE 16:21:51 10° ESE daylight
20 May - 18:13:01 10° SSW 18:26:12 41° SE 18:43:18 10° E daylight
20 May - 20:23:30 10° WSW 20:40:21 63° SSE 20:59:03 10° E daylight
20 May - 22:37:02 10° W 22:55:56 64° S 23:12:33 10° ESE daylight
21 May - 00:52:50 10° W 01:10:09 43° SSW 01:23:10 10° SSE daylight
21 May - 03:13:19 10° W 03:21:22 15° SW 03:28:04 10° SSW visible
21 May - 16:53:17 10° S 17:03:24 26° SE 17:16:42 10° E daylight
21 May - 19:01:17 10° SW 19:15:50 53° SSE 19:34:24 10° E daylight
21 May - 21:13:12 10° WSW 21:30:55 66° S 21:49:18 10° ESE daylight
21 May - 23:27:35 10° W 23:46:15 56° SSW 00:01:47 10° SE daylight
22 May - 01:44:37 10° W 01:59:14 29° SW 02:10:31 10° S daylight
22 May - 15:37:17 10° SE 15:41:36 12° SE 15:46:30 10° ESE daylight
22 May - 17:40:17 10° SSW 17:52:17 39° SE 18:08:49 10° E daylight
22 May - 19:50:19 10° WSW 20:06:01 62° SSE 20:25:06 10° E daylight
22 May - 22:03:17 10° W 22:21:32 64° S 22:39:12 10° ESE daylight
23 May - 00:18:29 10° W 00:36:05 44° SSW 00:50:18 10° SSE daylight
23 May - 02:38:22 10° W 02:47:48 17° SW 02:55:44 10° SSW daylight
23 May - 16:20:51 10° S 16:29:49 24° SE 16:41:57 10° E daylight
23 May - 18:28:28 10° SW 18:41:46 52° SSE 19:00:04 10° E daylight
23 May - 20:39:52 10° WSW 20:56:31 66° S 21:15:32 10° ESE daylight
23 May - 22:53:39 10° W 23:11:56 56° SSW 23:28:35 10° SE daylight
